Wind_Speed
70 69 68 67 66 65 66 66 65 65 62 60 59 54 50 49 46 40 34 31 33 32 29 30 32 28 26 28 28 28 28 26 23 22 22 19 15 12 8 4 2 1 2 3 4 7 9 10 12 13 13 13 13 13 13 13 13 13 13 13 13 14 15 15 17 18 18 19 20 22 22 21 22 22 23 25 26 27 27 25 24 24 24 23 23 22
70 70 69 69 69 67 68 68 67 66 65 63 60 57 53 49 47 42 37 33 32 33 31 29 32 32 29 29 30 29 29 26 23 22 22 20 17 14 10 6 5 4 1 1 2 5 7 9 11 12 12 13 13 13 13 13 13 13 13 13 14 14 15 15 16 17 17 17 18 19 19 19 20 20 22 24 26 27 27 25 25 25 25 24 24 23
70 70 70 71 71 70 69 69 69 67 65 64 61 58 55 52 48 41 35 34 35 34 33 31 32 34 31 30 31 31 30 27 26 24 22 22 21 17 13 9 8 7 4 2 2 3 4 6 9 11 12 12 13 13 13 12 13 13 14 14 14 15 15 15 15 16 17 17 17 17 18 17 18 20 21 23 25 27 27 26 26 25 25 25 25 24
72 72 72 73 72 71 70 70 70 69 66 65 63 59 56 54 51 43 35 36 38 39 37 34 35 34 32 32 31 31 33 31 30 29 26 25 24 20 16 13 11 9 6 4 3 2 2 4 7 10 11 11 12 13 13 13 13 13 14 14 14 15 15 16 16 16 16 16 17 17 17 17 18 19 21 23 24 26 26 27 27 27 26 26 25 25
73 74 75 74 74 73 72 72 71 70 68 67 65 61 57 56 53 44 37 39 40 40 38 35 36 35 33 34 32 29 34 33 31 33 32 28 26 23 19 17 14 11 8 6 4 3 2 2 5 8 9 10 10 11 12 13 13 13 13 14 14 15 15 15 16 17 17 16 17 16 17 17 18 20 21 22 23 25 26 27 27 28 28 27 26 26
74 76 77 76 76 75 73 72 72 72 71 70 68 63 56 56 55 44 37 41 44 43 40 36 37 37 34 34 33 30 32 33 33 34 35 31 28 25 22 20 16 12 10 7 6 5 3 1 2 5 8 9 10 10 11 12 12 13 13 14 14 14 15 15 16 16 16 16 16 16 17 18 19 20 21 21 23 25 26 27 27 27 29 29 28 27
75 76 77 77 77 76 75 75 75 75 74 71 69 67 61 58 58 47 38 41 46 45 42 39 38 38 35 33 32 32 32 33 33 35 35 33 30 25 22 21 18 14 12 9 8 7 4 3 1 3 5 8 8 9 9 11 12 13 13 13 14 14 14 14 15 15 16 16 17 17 18 19 19 20 21 21 22 24 26 27 26 27 28 29 28 28
77 78 78 79 77 75 76 77 78 77 76 74 71 69 66 62 60 54 45 44 47 46 42 39 38 37 35 33 33 34 34 32 32 34 34 33 31 27 24 23 20 16 14 12 11 9 7 5 3 1 3 5 7 7 8 9 10 11 13 14 13 13 13 13 14 14 15 16 17 17 18 19 20 20 21 21 21 22 23 25 26 26 27 28 28 28
80 80 80 80 76 74 76 77 78 79 77 76 73 70 69 67 65 60 54 49 49 49 43 39 39 39 37 36 35 35 36 33 31 32 32 31 30 27 25 24 21 18 16 14 13 13 10 8 6 4 1 3 5 6 6 7 9 10 11 13 13 12 11 11 12 13 13 14 15 16 17 17 19 19 20 21 21 21 21 23 25 25 26 27 27 27
82 80 79 77 74 75 78 80 80 80 78 76 74 72 71 70 67 65 61 56 53 53 50 45 43 44 40 38 38 36 35 34 32 31 32 32 30 27 25 23 21 20 19 17 15 15 14 11 8 6 4 1 3 5 6 6 7 9 11 12 12 12 10 9 9 10 10 11 13 14 15 15 16 18 19 20 20 21 21 22 23 24 25 26 25 26
81 79 79 78 77 81 83 83 81 79 78 77 75 75 74 70 67 67 66 62 57 55 54 50 47 46 42 38 40 38 34 34 34 32 31 31 31 29 25 22 21 21 21 19 18 17 16 13 10 8 7 5 1 2 5 6 7 8 11 12 12 11 10 8 8 8 8 9 10 12 13 13 14 15 17 19 20 20 20 21 22 23 24 25 24 24
78 77 78 79 81 84 84 83 82 79 78 78 76 77 77 72 67 67 65 62 58 55 54 52 47 46 44 41 42 42 38 35 34 33 31 31 32 31 27 23 21 22 22 22 20 19 18 16 13 11 9 8 5 2 2 5 7 8 9 11 11 10 9 8 7 7 7 7 8 9 10 11 12 11 14 18 19 20 20 20 21 22 23 24 24 23
79 78 77 78 79 82 83 83 82 80 79 79 79 79 79 74 68 65 63 60 57 54 54 53 47 45 46 45 44 44 40 37 37 36 33 32 32 32 29 25 23 23 24 24 23 21 19 18 17 14 12 11 9 7 3 3 6 7 7 7 8 8 8 7 6 6 6 6 6 7 7 8 9 9 10 14 16 19 21 21 21 21 21 23 24 23
81 78 78 78 80 82 83 83 81 79 78 80 81 80 81 79 71 65 63 59 55 53 52 51 49 48 49 49 47 45 42 41 41 40 37 35 34 33 31 28 25 24 25 26 25 22 21 20 20 18 15 14 12 11 7 4 5 5 5 4 5 5 6 6 5 4 4 5 5 5 5 6 7 7 8 11 14 16 19 20 20 20 20 20 22 23
81 79 81 83 84 85 84 83 82 80 80 82 83 83 83 83 78 70 64 60 57 55 51 50 52 52 51 50 48 46 45 43 42 39 37 35 35 34 34 32 28 26 26 27 27 24 23 23 23 21 19 17 16 14 12 8 6 5 4 4 4 5 5 4 4 4 3 3 4 4 5 5 6 6 6 9 13 15 17 19 20 19 19 19 19 21
82 83 85 87 87 86 85 85 86 84 83 85 86 86 86 86 85 79 71 66 63 59 55 52 53 54 54 52 50 48 49 47 41 37 35 34 34 35 35 36 33 28 28 29 28 27 25 25 26 23 21 20 19 18 15 13 9 7 6 4 3 4 4 4 3 3 3 2 2 2 3 4 5 6 6 8 11 14 15 17 19 19 20 20 19 20
83 85 88 89 88 86 86 87 87 86 87 88 87 87 87 87 88 84 78 74 70 65 60 57 54 54 55 55 53 52 52 49 42 39 37 35 34 35 36 37 37 33 30 30 30 29 27 27 27 26 24 23 22 21 19 17 14 11 9 7 5 4 4 3 4 3 2 2 2 0 1 3 4 5 6 7 8 11 13 15 17 19 20 20 20 20
83 85 90 91 90 88 87 88 89 88 89 89 88 89 89 89 88 86 83 80 76 71 66 62 58 54 53 53 53 53 53 52 47 42 40 38 36 36 38 39 39 36 32 31 32 31 29 28 29 29 28 26 25 23 23 21 18 15 13 11 9 7 5 4 3 3 3 3 3 2 1 0 2 2 3 6 7 8 10 12 15 18 19 19 19 20
84 86 90 90 89 87 86 88 89 88 89 89 88 89 90 89 87 85 85 83 81 78 73 68 63 57 55 53 49 48 51 54 53 46 41 40 38 37 38 40 40 37 34 34 36 35 32 30 31 32 32 30 28 26 26 25 23 20 18 16 14 11 9 8 6 5 4 4 3 3 4 4 2 1 1 2 5 6 7 9 12 15 17 18 18 18
85 87 88 88 87 86 85 87 88 87 87 88 87 88 88 88 88 86 86 86 84 83 79 73 66 61 61 59 50 44 45 49 52 48 43 41 40 38 39 41 42 40 37 37 39 38 35 33 33 34 35 34 32 30 29 28 26 24 22 20 19 16 14 13 12 10 8 7 5 4 4 4 1 2 2 2 3 4 5 6 8 11 14 16 17 17
85 86 87 88 87 84 84 87 87 86 87 88 88 88 88 89 90 88 86 86 86 84 81 77 72 66 65 65 57 48 42 42 45 47 45 44 41 39 39 41 42 41 38 38 38 37 34 35 36 36 38 38 36 33 32 30 29 27 26 24 22 20 19 18 16 15 14 12 10 7 5 3 1 1 2 3 3 4 4 4 5 8 10 12 15 16
86 86 87 88 87 85 85 86 86 85 87 90 90 90 90 91 92 91 88 87 86 84 81 80 79 73 69 69 64 53 44 41 43 46 48 47 44 41 40 40 40 41 40 38 38 38 35 36 38 39 39 40 39 37 34 32 31 30 29 28 26 24 22 22 21 20 19 17 14 12 7 4 2 3 3 3 3 3 4 4 2 4 6 8 11 13
88 86 86 86 85 85 87 87 87 86 88 91 91 91 92 92 93 93 92 90 88 85 82 83 84 80 74 73 69 59 50 45 46 48 49 50 49 45 43 42 42 41 39 39 41 42 41 40 40 41 42 41 40 39 35 32 33 33 32 32 30 27 26 25 25 23 22 21 19 16 12 9 7 5 5 5 5 4 5 5 3 1 2 3 6 8
86 86 86 84 83 85 86 86 87 87 89 92 91 91 93 93 92 92 92 93 92 90 86 86 87 86 81 77 71 65 60 54 52 52 52 51 51 48 45 45 47 45 42 42 45 46 46 44 41 41 44 43 40 39 36 32 34 36 36 35 33 31 30 29 28 26 24 24 23 20 17 14 12 10 9 9 9 9 10 9 7 5 4 3 2 4
87 88 87 85 84 85 85 85 87 87 87 90 90 90 92 93 91 91 92 93 94 94 91 87 87 88 87 82 73 66 61 54 51 55 58 56 52 49 46 44 47 49 46 45 49 50 49 48 43 40 44 47 44 40 37 34 36 38 38 37 35 33 32 31 30 28 27 27 26 24 21 19 17 16 14 13 13 13 13 13 11 10 10 9 7 4
90 89 88 86 85 85 86 87 89 88 87 89 90 91 93 93 93 93 94 94 94 94 93 90 88 89 90 87 78 69 60 47 40 47 59 64 60 54 49 45 45 48 46 44 48 50 50 51 49 44 43 46 46 42 39 38 39 38 38 39 38 35 34 32 30 28 28 29 29 28 26 24 21 20 19 19 18 17 16 15 15 14 13 12 10 8
91 89 88 87 86 86 86 88 89 90 89 90 90 91 92 92 93 94 95 95 94 93 92 93 92 89 89 87 81 75 67 55 43 41 49 62 68 63 54 47 46 45 43 41 45 50 51 50 51 50 48 47 45 42 41 41 41 39 38 39 38 37 37 36 33 31 31 31 31 31 30 28 26 24 22 22 21 20 19 18 17 16 14 13 12 11
91 90 89 88 87 87 87 88 89 90 90 90 88 88 90 92 93 93 94 95 94 93 93 94 94 92 89 87 82 77 74 66 54 46 46 54 66 69 61 53 49 46 44 43 45 50 53 51 48 47 49 52 52 48 45 44 42 40 40 41 41 40 40 39 37 36 34 34 34 34 33 32 30 28 26 25 24 23 22 21 20 19 18 16 14 14
91 91 91 90 90 89 88 88 89 89 89 89 88 88 89 91 92 94 95 96 96 97 97 96 94 91 89 89 86 80 79 76 64 52 46 46 58 69 67 61 58 55 53 53 52 53 56 57 54 49 47 50 53 51 48 46 43 40 40 41 42 42 40 40 41 40 39 37 37 36 35 34 34 32 29 27 26 25 24 23 23 22 21 20 19 18
91 92 93 93 91 89 88 88 88 89 89 90 89 90 90 91 94 97 98 98 99 101 101 97 93 88 86 88 91 86 82 81 75 63 51 44 52 67 71 67 64 62 61 62 62 61 61 62 63 62 59 57 56 54 52 50 47 45 43 41 41 43 43 43 44 43 42 41 40 39 38 38 37 36 34 31 29 27 26 25 25 25 24 23 22 22
91 94 94 94 92 90 90 89 88 88 90 91 92 93 93 94 97 99 99 98 99 101 98 93 90 88 86 88 92 92 87 83 81 76 65 53 48 55 64 67 66 64 64 66 66 66 66 67 67 67 68 66 64 62 60 58 54 52 51 50 49 50 48 47 46 45 44 44 43 42 42 42 41 40 37 34 31 30 30 28 27 26 26 26 26 26
90 93 94 95 94 92 92 91 90 90 91 92 93 93 93 92 93 94 95 94 96 96 93 90 89 89 90 90 92 94 92 88 85 79 72 66 56 49 53 60 62 62 64 66 68 69 68 70 70 68 67 68 67 66 65 63 61 59 58 58 59 58 54 51 50 48 46 44 44 45 46 46 46 43 40 38 36 34 33 32 31 29 28 29 30 30
87 91 94 95 94 93 93 93 93 92 91 92 92 90 90 90 89 89 89 89 90 92 90 89 90 90 90 91 91 91 91 91 91 85 77 73 69 60 57 58 58 63 67 69 71 72 70 71 72 69 66 65 65 66 66 66 65 65 63 61 62 61 58 55 54 52 49 48 48 49 50 50 48 45 43 42 40 39 38 36 35 33 32 32 33 33
84 89 93 94 93 94 95 94 93 92 90 90 90 88 88 89 88 86 85 86 88 90 89 87 88 90 90 89 90 91 90 90 93 93 87 81 76 70 65 63 64 69 74 74 74 73 71 72 73 72 68 65 62 62 65 67 68 68 67 64 64 64 61 59 57 55 53 52 54 54 53 51 49 47 46 46 45 44 43 40 39 38 36 36 36 36
80 86 90 92 93 95 96 95 93 92 90 88 87 87 88 88 88 86 85 85 86 87 87 84 83 85 88 89 88 85 84 86 89 91 90 87 84 80 78 77 76 77 78 78 77 76 73 73 75 75 72 69 66 63 63 67 70 71 71 69 68 66 63 61 59 58 57 56 56 57 56 52 49 48 48 47 46 46 45 43 42 41 41 41 40 39
75 81 86 90 93 95 96 95 93 92 90 88 87 88 88 87 87 88 86 86 86 84 84 82 77 76 82 88 87 80 80 85 86 87 89 90 88 87 87 87 86 84 83 82 81 81 77 75 77 79 77 74 73 69 65 65 69 72 74 74 71 68 65 62 60 60 61 60 58 59 59 55 51 50 49 46 45 46 45 43 41 41 42 43 43 42
69 76 83 87 91 94 95 94 94 94 92 88 87 88 88 86 86 87 87 87 86 84 83 81 73 67 71 81 84 82 84 86 84 83 89 93 92 90 89 90 89 87 86 84 83 85 83 77 78 83 83 80 79 76 71 68 67 69 73 76 75 70 66 64 63 62 62 61 61 61 61 59 55 54 53 50 48 48 47 47 46 45 46 47 46 45
64 71 78 83 86 90 93 95 95 95 94 91 88 88 89 88 88 87 86 86 86 85 85 84 76 65 62 69 76 78 83 87 87 86 89 93 94 93 92 92 91 90 89 87 86 88 87 81 79 84 87 86 84 81 77 73 70 68 69 72 75 72 69 68 67 65 63 62 62 63 63 62 59 57 56 55 53 52 52 52 51 51 50 49 47 46
61 67 74 78 81 85 90 94 95 94 94 94 93 91 91 90 90 89 87 84 83 83 84 84 81 72 65 69 76 79 81 84 86 88 92 95 98 98 95 94 92 92 93 92 91 92 92 88 84 84 86 86 86 86 84 79 75 72 70 70 72 73 72 71 70 68 66 64 63 64 64 64 62 60 58 57 56 56 56 56 53 50 49 47 46 44
59 62 67 72 76 80 84 90 94 94 93 95 96 94 92 93 92 91 90 87 83 82 82 81 77 71 66 67 73 78 83 87 88 87 90 94 98 100 100 98 95 93 94 95 96 96 97 96 93 90 89 87 86 87 90 88 82 77 74 72 71 71 72 72 70 70 69 68 67 67 67 67 66 64 61 58 57 57 58 58 57 54 53 52 49 47
59 60 63 69 74 77 81 87 91 93 93 95 97 95 93 94 94 93 92 91 89 85 83 83 81 75 69 68 69 70 78 90 95 93 91 92 95 98 100 101 101 99 98 98 97 96 97 99 99 98 97 95 91 88 90 93 90 84 78 76 74 72 71 72 72 71 70 70 69 69 69 69 68 66 63 61 60 61 62 62 61 60 59 58 55 52
60 60 61 66 70 73 78 83 87 91 93 95 97 97 95 94 95 94 92 93 93 90 86 85 87 84 79 76 73 70 73 82 90 93 95 95 95 96 98 99 100 102 101 100 99 97 96 99 101 102 102 102 100 94 90 92 95 92 85 80 77 75 73 72 72 72 72 72 71 69 68 69 69 69 67 64 62 64 65 66 66 64 62 61 58 56
60 61 60 62 65 68 73 78 82 88 93 95 95 97 97 95 96 97 96 94 95 95 93 90 90 91 88 84 81 78 76 78 81 85 89 93 95 97 99 99 99 100 100 100 100 98 97 98 101 103 103 103 103 101 95 92 94 96 93 87 81 78 76 74 73 72 71 72 73 73 71 70 71 71 70 68 68 69 69 69 70 69 66 65 62 58
58 60 60 61 63 65 69 75 80 85 90 93 95 96 97 97 96 96 97 97 96 97 98 97 96 95 94 91 88 85 82 80 81 82 84 87 90 93 96 100 101 102 101 100 100 100 99 99 100 102 103 103 104 105 102 97 95 96 98 95 89 84 80 77 75 73 72 71 72 74 75 75 73 73 73 72 73 74 73 72 73 73 71 69 66 62
56 61 62 63 64 65 67 72 77 82 86 90 93 95 97 97 97 97 98 99 99 98 97 98 99 98 97 94 92 91 88 84 82 83 84 86 88 90 93 96 100 103 104 103 102 101 101 101 101 101 102 102 103 105 106 104 101 99 98 99 98 94 90 86 82 78 75 74 73 75 77 78 78 77 76 76 76 77 75 74 75 76 75 73 70 66
53 61 64 63 63 65 68 71 74 78 82 86 89 92 94 95 96 97 99 99 100 99 98 98 99 100 100 99 96 94 93 90 87 84 83 84 87 90 93 95 97 100 102 103 103 102 103 104 104 104 104 103 103 104 106 106 106 104 102 100 101 101 101 98 94 88 84 80 77 76 78 80 81 81 80 79 79 79 78 78 78 78 78 77 74 70
48 58 64 65 63 63 66 68 71 74 79 83 85 88 90 92 93 95 98 100 100 100 100 100 100 99 100 103 102 99 97 96 95 91 88 85 85 87 91 94 96 97 100 102 102 102 102 104 106 107 107 106 105 104 105 107 108 108 107 105 104 104 105 105 103 99 96 92 86 82 80 81 81 82 83 82 82 82 81 81 81 80 80 80 78 74
43 53 62 67 65 63 63 65 67 70 74 78 82 85 87 90 91 91 93 97 99 100 101 102 102 101 100 102 104 103 101 100 99 98 96 94 91 89 91 93 95 95 98 101 103 103 102 103 104 106 108 109 108 107 107 107 108 108 108 108 108 107 107 109 109 108 106 105 100 92 87 86 84 83 83 83 84 84 84 84 84 83 82 82 83 80
38 46 57 65 67 65 63 63 64 68 70 72 77 81 84 87 89 90 91 93 96 98 100 102 103 104 103 103 104 104 104 104 103 102 101 100 97 94 94 95 96 97 98 101 103 104 104 104 104 105 107 109 110 109 108 109 110 110 109 109 110 110 109 109 112 113 113 113 110 104 97 93 91 89 87 85 83 83 84 85 86 86 84 83 84 84
32 39 50 60 65 65 64 64 64 66 67 69 72 76 79 82 84 87 89 91 93 95 98 100 102 103 105 105 106 105 105 105 106 105 103 103 102 100 98 98 98 98 99 101 103 104 105 106 106 106 107 108 110 110 109 109 110 112 112 111 111 111 111 110 110 113 114 116 116 113 108 102 98 96 93 91 88 85 84 84 86 87 87 86 85 85
25 33 42 51 58 62 64 65 67 66 66 67 69 72 74 76 78 81 84 87 90 92 95 98 100 102 103 104 106 107 107 107 108 107 106 105 105 105 103 102 102 102 102 101 102 103 104 105 106 107 108 109 110 111 110 110 110 111 113 114 113 113 113 112 111 111 113 115 118 118 116 112 107 103 100 98 96 93 90 88 87 87 87 88 87 86
Wind_Direction
208 209 207 206 205 205 205 205 205 203 201 200 197 197 200 202 204 205 205 212 217 216 216 214 208 202 203 208 214 226 233 236 234 232 230 227 225 214 189 171 194 254 6 26 34 43 50 53 56 58 57 57 56 53 50 52 56 58 63 67 70 73 76 78 77 74 73 72 67 61 60 62 61 58 55 53 52 54 55 54 54 55 56 58 60 61
207 207 206 205 205 204 204 205 205 203 202 200 198 197 199 200 204 206 210 216 221 220 217 215 209 199 200 209 214 221 227 232 231 228 230 225 217 209 197 194 210 216 256 341 9 39 54 58 59 61 62 59 57 56 51 49 52 53 57 62 66 69 71 74 76 74 73 74 71 65 62 63 64 61 59 56 54 54 54 53 54 55 56 57 58 60
205 205 205 205 204 203 204 204 205 203 202 201 198 197 199 199 200 199 200 207 210 213 213 213 207 197 199 209 215 221 223 225 228 226 228 226 216 212 212 216 221 217 213 243 305 15 52 63 62 64 65 63 58 57 55 51 49 50 53 56 61 65 69 71 74 75 74 75 73 68 64 64 65 63 62 60 56 55 55 55 55 55 56 57 59 60
204 203 204 204 204 203 203 204 204 203 202 202 198 198 198 197 198 196 197 203 205 208 211 213 210 200 201 208 212 221 223 221 224 225 225 225 218 215 218 223 227 221 210 216 253 323 30 65 67 66 67 67 62 58 57 56 52 51 52 53 58 62 67 70 72 74 75 72 70 67 65 64 65 64 63 63 59 57 57 57 57 56 56 56 58 59
203 203 203 203 203 202 202 203 203 202 202 201 198 197 198 196 197 197 200 205 207 209 209 212 212 205 203 208 209 218 224 221 220 222 224 222 217 215 218 222 227 223 214 213 228 268 333 56 72 68 69 70 69 62 59 59 56 55 54 55 58 61 66 71 73 75 75 73 70 68 66 66 65 64 63 63 61 60 59 59 59 59 58 57 57 58
203 203 203 202 202 201 201 202 202 202 202 201 199 196 195 194 193 193 198 204 205 204 205 207 208 205 203 206 207 213 222 219 217 223 227 225 216 212 216 222 224 222 218 218 224 242 284 321 68 70 72 72 76 71 62 60 60 60 61 60 60 62 66 70 74 76 76 76 74 72 68 66 64 62 62 62 62 62 61 60 60 61 61 60 58 58
203 203 203 202 202 201 200 201 201 201 201 201 199 195 194 192 189 189 196 205 203 198 201 204 203 203 204 205 208 213 220 220 220 225 230 231 221 211 213 219 221 218 216 221 226 230 245 260 304 58 71 73 79 83 74 66 63 64 66 66 65 65 67 71 74 77 77 75 73 71 68 65 63 62 62 62 62 62 62 61 60 61 62 62 62 61
203 202 202 202 201 200 201 202 201 201 200 200 198 196 195 193 190 191 197 203 202 198 199 202 201 201 203 205 210 216 221 223 225 226 228 232 227 215 211 214 216 214 213 218 226 228 228 236 251 315 65 76 77 85 90 80 70 70 70 71 71 69 68 71 75 77 79 76 71 69 66 64 64 63 61 62 62 62 61 61 60 61 62 63 64 63
204 202 201 201 199 200 202 203 202 201 200 199 198 196 198 197 194 195 200 202 201 199 196 194 196 199 199 201 205 212 218 222 224 223 221 225 227 220 213 211 211 211 211 213 221 228 228 227 234 254 315 74 76 75 91 97 85 77 76 75 74 74 70 68 72 77 80 78 74 70 66 62 61 61 61 60 61 61 61 60 61 62 63 63 64 65
203 201 201 200 198 200 202 203 203 202 200 199 197 197 198 199 197 198 202 204 202 203 200 194 194 197 198 200 202 206 215 220 223 223 220 220 221 220 215 212 210 211 212 211 217 226 231 231 229 236 259 287 79 72 79 103 103 88 84 81 76 76 73 66 66 71 73 74 75 75 70 65 59 56 58 60 61 62 62 62 61 62 64 64 64 66
203 201 200 197 198 201 201 202 203 202 201 199 197 197 198 199 199 200 203 205 204 205 205 202 201 201 202 204 203 204 211 218 222 224 221 217 217 219 219 215 211 211 212 213 215 223 231 236 233 230 244 259 250 89 78 100 123 107 92 87 81 76 74 69 63 60 62 68 74 74 71 70 65 57 56 60 63 63 63 63 61 60 61 62 64 65
202 202 200 198 199 202 201 201 201 200 200 198 197 197 197 198 199 201 202 204 205 204 205 207 207 208 208 206 204 205 209 215 219 219 216 215 216 219 222 222 217 214 213 214 216 221 228 234 236 233 235 244 252 239 103 105 132 130 109 95 87 80 75 72 67 59 60 67 73 76 76 76 73 66 59 59 62 63 63 63 62 60 60 60 61 63
200 201 201 200 202 203 202 201 201 200 199 198 198 197 196 196 197 199 200 200 202 203 205 207 206 207 208 207 205 205 209 213 215 216 217 218 217 217 222 226 223 218 216 216 218 222 227 233 237 237 234 235 244 247 222 141 142 147 136 118 102 92 85 78 73 69 69 73 77 77 79 81 79 73 64 61 62 61 60 61 63 63 61 58 58 60
199 199 200 201 203 203 202 202 201 200 199 199 199 197 196 195 194 196 197 196 198 199 201 204 203 203 206 206 206 206 209 212 212 214 217 219 217 217 222 226 224 222 221 218 219 223 227 232 237 240 239 236 237 243 239 205 169 164 163 154 138 124 109 96 87 81 76 78 84 82 78 81 83 81 75 67 64 61 58 58 61 62 60 57 56 56
196 197 201 202 203 202 201 201 200 199 199 200 199 198 197 196 195 196 195 194 196 195 195 199 200 202 204 204 206 207 207 209 209 209 212 215 217 220 226 229 226 224 225 222 220 222 225 230 237 242 243 242 239 241 241 228 199 177 177 172 153 151 144 126 109 98 87 74 75 83 81 79 83 83 80 74 68 62 59 57 58 59 59 58 55 53
196 197 201 203 203 201 199 200 199 198 198 200 200 199 198 197 197 198 197 196 196 193 191 195 197 200 202 203 205 206 205 208 210 208 207 209 215 221 227 228 224 221 225 226 223 222 223 228 236 241 243 243 242 242 242 237 221 201 192 187 162 151 159 161 150 130 119 103 78 74 74 73 77 78 74 73 70 65 62 59 57 57 56 56 55 52
198 199 201 203 202 200 200 200 199 198 198 200 200 199 198 198 199 199 200 201 200 194 191 194 197 199 201 203 206 205 205 208 211 210 206 206 212 219 223 225 224 224 226 228 226 224 223 226 235 242 243 243 242 242 243 241 232 222 215 209 197 171 158 168 177 176 174 172 176 87 67 69 69 68 64 63 66 66 64 62 58 54 52 52 52 52
199 201 203 203 202 201 200 199 199 199 199 200 200 200 199 199 200 200 201 203 202 198 196 197 201 202 202 204 207 208 209 210 212 213 210 207 210 215 220 226 228 228 227 228 229 228 226 226 231 239 242 242 241 241 241 242 238 232 228 225 221 213 198 192 187 189 205 211 214 214 203 183 38 42 49 52 54 58 63 65 61 56 51 49 48 49
199 203 205 204 203 201 200 200 200 200 200 200 200 201 201 199 199 200 201 203 203 202 202 202 203 205 205 204 206 208 213 215 215 214 211 209 209 211 216 223 227 229 229 228 229 229 228 227 229 234 239 240 241 241 240 240 240 237 234 233 232 230 227 224 220 217 218 226 233 226 230 257 327 14 298 26 40 42 51 61 62 58 53 49 46 45
201 204 204 204 204 203 201 201 201 200 201 201 201 203 203 201 200 201 202 203 203 204 206 206 206 207 207 205 204 206 213 216 216 213 210 207 206 206 210 218 225 228 228 225 225 227 229 230 230 231 235 238 238 240 239 238 240 240 239 238 236 235 237 237 236 238 237 239 252 265 274 286 9 115 220 282 346 13 32 50 62 61 55 48 43 41
202 205 204 204 205 204 203 203 202 201 202 202 201 203 204 202 202 203 203 204 204 205 207 209 209 210 209 206 205 207 210 213 214 213 211 207 204 203 207 214 220 223 224 222 222 226 231 234 234 231 233 237 236 236 238 237 238 240 241 241 241 239 239 241 241 243 246 247 253 270 305 335 35 116 247 275 299 325 347 11 54 64 58 50 40 35
203 205 205 204 204 203 204 204 203 201 203 204 202 202 204 203 203 204 205 205 205 205 207 209 209 210 209 207 207 207 206 209 214 212 210 209 208 206 206 208 212 215 219 224 228 231 233 235 236 233 232 236 236 234 235 237 237 238 241 242 243 242 241 242 242 242 246 251 254 258 272 297 301 291 278 262 278 321 324 314 13 64 61 54 39 28
202 204 205 205 204 205 205 205 203 202 204 205 203 203 204 204 204 205 206 206 206 206 208 209 209 210 210 208 208 207 204 207 215 212 208 209 209 208 207 208 210 211 216 226 231 231 230 230 235 235 231 231 233 231 233 238 238 238 240 242 243 243 243 243 243 243 245 249 254 256 257 260 263 270 267 257 262 290 308 300 293 343 34 53 38 21
203 204 205 204 205 206 207 206 205 203 205 206 204 204 205 206 205 206 207 208 208 208 209 209 210 211 212 210 210 210 209 210 215 215 210 207 207 207 206 208 212 213 214 220 224 225 226 228 233 233 225 222 226 228 228 233 238 238 238 241 243 243 246 246 243 242 244 247 250 254 255 256 256 259 260 257 259 269 281 288 285 282 290 294 325 356
204 204 204 204 205 207 207 208 208 205 206 207 205 205 206 206 206 207 208 209 209 210 210 210 210 211 212 212 211 212 213 216 223 225 219 211 206 205 204 204 210 213 213 217 221 224 226 225 227 227 221 220 226 229 227 229 235 236 236 237 240 241 245 247 243 241 244 246 248 251 253 254 256 257 258 258 259 264 271 275 273 273 283 287 279 282
206 204 203 204 205 207 207 208 208 207 207 208 207 206 207 207 207 207 208 209 210 210 211 211 211 211 212 212 211 211 210 210 221 231 228 220 211 208 208 205 204 208 210 214 220 224 225 224 226 228 226 225 228 228 228 232 237 241 240 236 236 238 239 241 243 245 245 247 248 249 250 252 254 257 258 259 259 261 265 268 268 267 274 283 280 269
207 205 204 204 205 207 208 209 209 207 207 208 208 207 207 208 208 209 210 210 210 211 212 213 212 212 212 212 211 212 209 204 207 220 227 225 218 214 212 207 203 204 209 214 219 222 223 223 225 229 230 230 230 229 229 232 236 241 244 240 237 238 238 239 243 248 248 249 251 250 250 251 253 257 260 261 260 260 262 264 265 264 263 267 271 267
207 205 205 205 205 207 209 209 210 209 208 209 209 209 208 209 209 210 211 212 211 211 212 213 213 213 213 212 210 211 211 209 208 211 218 224 222 218 214 209 206 206 208 214 218 220 221 220 220 225 228 230 233 234 231 230 232 237 245 247 244 242 242 241 243 247 249 250 252 253 253 253 254 256 258 260 262 261 261 261 261 261 259 257 258 260
207 205 205 206 206 207 209 209 210 210 210 209 210 210 209 210 210 211 212 212 212 212 212 212 212 212 213 213 211 211 213 212 210 209 211 219 223 221 217 215 214 211 208 212 217 220 221 220 219 221 223 227 231 234 232 231 232 233 239 243 241 238 240 242 245 248 250 250 251 253 255 255 255 256 256 258 260 261 261 261 259 257 256 255 255 257
207 206 206 207 207 207 209 211 210 211 211 210 210 211 210 210 211 211 211 212 213 213 213 212 211 211 212 214 213 213 215 215 214 213 212 215 222 224 223 222 220 216 213 214 218 221 222 222 222 223 225 229 233 235 236 236 235 230 229 233 234 234 237 240 242 246 249 250 251 252 253 254 254 254 255 256 258 260 261 261 260 258 255 254 254 255
207 207 207 207 207 207 209 211 211 212 212 211 211 212 212 211 212 212 211 212 213 215 214 213 213 211 212 215 215 215 217 217 217 217 217 217 219 222 226 226 222 220 218 217 219 223 223 222 222 224 227 231 234 235 236 237 235 228 226 232 237 239 241 241 241 244 247 250 252 252 251 252 253 253 254 255 257 259 260 261 262 260 257 254 253 254
207 207 208 207 207 207 208 210 211 212 212 213 212 213 213 213 215 215 214 213 215 217 215 214 214 214 213 215 217 217 218 218 218 217 218 219 218 216 221 222 221 221 220 219 220 221 221 220 221 222 225 227 231 233 232 233 232 228 226 231 236 241 242 241 240 242 244 247 251 253 253 252 254 255 256 256 257 259 260 260 261 261 259 256 254 254
207 207 208 208 207 208 209 211 212 212 213 213 213 213 215 215 216 217 216 216 218 219 217 215 216 215 215 217 218 219 219 220 220 218 217 219 219 218 218 219 220 222 221 221 222 221 218 218 219 220 221 222 225 228 228 228 229 228 227 229 234 239 240 239 240 241 241 243 247 250 251 252 255 258 259 258 259 259 260 260 259 259 259 257 256 255
207 207 208 208 208 208 209 211 212 213 213 214 214 214 216 217 216 217 217 216 218 219 218 217 218 218 218 218 220 221 221 222 222 220 218 219 220 221 221 220 222 224 222 221 224 224 220 218 218 219 220 219 220 223 224 225 226 227 227 228 232 237 238 238 240 241 240 240 243 247 249 251 253 255 258 259 259 259 259 260 259 258 257 256 257 257
208 207 207 208 208 209 210 211 212 213 213 214 214 215 217 217 216 217 217 217 219 220 219 218 220 221 221 220 220 222 223 224 224 222 220 220 220 222 224 224 225 228 226 222 223 226 224 221 219 220 221 220 220 221 223 224 225 225 227 229 232 235 237 238 240 241 240 240 242 245 247 249 250 251 252 255 257 258 258 259 259 257 254 255 256 257
208 207 207 208 209 209 210 211 212 213 213 214 215 216 217 217 217 216 217 218 219 219 219 219 220 224 224 222 221 222 224 224 224 223 221 220 220 222 225 227 227 229 229 226 224 225 227 225 221 220 221 221 222 223 222 223 224 225 226 229 232 234 235 237 237 238 239 239 239 242 245 247 249 250 250 251 253 256 257 256 257 256 255 255 256 256
209 208 208 208 209 209 210 210 212 213 213 214 215 216 217 217 217 217 217 218 218 219 219 218 218 222 226 225 223 224 225 225 224 223 222 221 222 223 225 227 227 228 229 228 226 225 228 227 224 221 221 222 223 225 224 222 223 225 226 228 230 232 233 234 234 232 234 236 236 239 243 246 246 249 251 251 251 253 255 255 256 257 258 257 256 256
209 209 209 208 209 209 210 210 212 213 213 214 216 216 217 217 218 217 217 217 218 218 219 218 216 218 223 225 225 224 225 226 227 226 224 223 223 224 226 228 229 229 230 230 228 227 228 228 225 222 221 222 223 225 227 224 222 223 225 226 228 230 231 231 231 229 229 232 233 236 241 244 245 247 250 252 253 254 256 257 257 256 257 257 256 254
209 209 209 209 209 209 210 211 212 213 213 214 215 217 217 217 217 217 217 216 216 217 218 218 218 218 220 224 226 227 226 226 228 229 228 226 224 225 227 229 230 230 231 230 229 229 229 229 228 226 225 224 224 225 227 228 225 223 224 225 225 227 228 229 228 226 227 230 232 236 241 244 245 246 247 250 253 254 255 257 256 253 251 251 252 251
209 208 208 208 209 210 210 211 212 213 214 214 215 216 217 217 217 217 217 216 215 215 217 216 215 215 217 220 224 226 227 227 228 229 229 227 226 226 227 229 229 230 230 230 230 230 230 231 232 231 230 230 229 227 226 228 229 227 225 225 225 225 226 227 227 226 227 230 233 237 241 243 245 245 244 244 247 249 251 253 253 251 249 248 250 252
208 208 208 207 208 210 211 211 211 213 214 215 215 216 217 217 217 217 217 217 216 215 215 214 213 213 215 217 218 220 224 226 226 228 229 228 227 227 227 228 229 230 231 231 231 231 231 231 233 234 233 233 232 231 227 226 228 230 228 226 226 226 225 226 227 227 228 229 232 235 238 239 241 242 241 241 243 245 247 249 251 251 250 248 249 251
207 207 207 207 208 210 212 212 212 213 214 215 216 216 217 218 218 217 217 217 217 216 213 212 213 214 215 217 219 220 222 224 225 226 227 228 228 228 227 228 229 230 231 232 232 232 232 232 233 235 235 234 233 232 229 226 226 229 230 228 227 228 228 226 226 227 228 229 230 232 235 237 238 238 239 239 239 240 243 246 248 248 247 246 247 248
206 205 206 207 208 209 210 212 213 214 215 215 216 216 218 218 219 218 217 217 218 217 215 214 215 216 217 218 220 222 224 226 226 226 225 226 228 228 228 228 229 229 231 232 233 233 232 232 233 235 237 237 235 233 232 230 227 227 230 230 230 229 228 228 227 228 229 230 231 232 233 236 237 238 237 236 236 237 239 242 244 245 244 245 246 246
205 204 204 206 208 209 210 211 213 215 216 216 216 217 218 219 219 219 219 219 219 218 218 218 219 220 221 221 222 223 225 228 229 228 227 226 226 228 229 229 229 230 231 233 233 233 232 232 233 234 236 238 238 236 234 233 231 229 228 230 232 232 229 228 228 229 229 230 231 233 234 235 236 237 238 236 237 239 240 240 242 243 243 243 245 247
205 203 204 206 207 208 210 212 213 215 216 217 218 218 218 219 220 220 221 221 221 220 220 221 221 221 222 224 225 225 226 227 229 230 230 229 228 228 229 229 230 230 232 233 234 234 234 233 234 234 236 237 239 238 236 235 234 232 230 229 231 233 234 232 231 230 229 229 230 232 234 235 235 236 237 237 238 240 241 240 241 243 244 243 245 247
205 203 205 207 208 209 211 212 213 215 216 218 219 220 219 219 220 221 222 222 222 222 222 222 222 223 224 225 226 227 227 227 228 229 231 231 231 230 230 230 231 232 232 233 234 235 235 235 235 235 236 237 238 238 238 237 236 235 234 232 230 232 235 237 237 236 234 232 230 230 232 234 235 236 236 237 238 239 240 239 239 241 242 243 244 245
207 205 205 207 210 212 213 214 215 216 217 219 220 221 221 221 220 221 223 223 223 223 223 223 223 224 225 226 227 228 229 229 229 229 230 231 231 232 232 231 232 233 233 234 234 235 235 236 236 236 237 238 238 238 238 238 237 237 237 236 234 232 233 236 239 240 239 237 235 232 230 232 233 234 235 236 237 238 239 239 238 238 239 240 241 242
208 206 206 208 211 212 214 216 217 218 219 220 221 222 223 223 223 222 223 224 225 225 225 225 224 224 225 226 227 228 229 230 230 231 231 232 233 233 234 233 232 233 234 235 235 235 235 236 237 237 237 238 239 239 239 238 238 238 238 238 238 237 236 236 238 240 242 242 240 236 233 231 232 232 233 235 236 237 237 237 237 237 237 237 238 240
209 208 208 209 211 213 215 217 218 218 220 223 223 224 225 226 226 225 225 225 226 227 227 227 227 226 227 227 228 229 229 230 232 232 233 233 233 233 235 235 234 234 235 235 236 236 236 236 237 238 238 238 238 239 239 239 239 238 238 238 238 239 239 239 239 240 241 242 242 240 237 234 232 232 231 232 233 235 236 236 237 237 236 236 238 239
212 212 211 210 211 214 217 219 219 219 222 225 225 226 227 228 228 228 228 227 227 228 228 229 229 229 229 228 229 230 230 230 231 233 234 233 233 233 235 235 235 235 235 236 236 236 237 237 237 238 238 239 239 239 240 240 240 240 240 239 239 238 239 239 239 239 240 240 241 242 240 238 235 233 232 231 231 232 233 235 236 236 236 236 237 238
210 211 212 212 213 215 218 220 221 222 224 227 227 227 228 229 230 230 231 230 230 230 230 230 231 231 231 231 231 231 232 232 232 233 234 234 234 234 235 235 235 235 235 236 236 237 237 238 238 238 238 239 239 240 240 241 241 241 240 240 240 239 239 239 239 239 239 239 240 241 241 241 239 236 233 232 232 232 232 234 235 236 236 236 236 237
Height
10897 10904 10913 10920 10926 10932 10938 10943 10948 10953 10958 10963 10967 10971 10977 10981 10983 10987 10991 10994 10996 10998 11001 11003 11006 11008 11009 11011 11014 11016 11017 11019 11021 11023 11024 11026 11028 11029 11029 11029 11030 11031 11031 11032 11032 11031 11031 11030 11029 11029 11028 11027 11027 11026 11026 11025 11025 11024 11023 11022 11021 11019 11017 11016 11015 11014 11013 11012 11011 11010 11009 11008 11007 11006 11006 11004 11003 11001 10999 10999 10998 10996 10995 10993 10992 10990
10891 10899 10907 10912 10918 10925 10931 10937 10942 10948 10953 10958 10963 10968 10972 10977 10981 10985 10990 10994 10995 10997 11000 11002 11004 11006 11007 11009 11011 11013 11015 11017 11019 11021 11023 11025 11026 11027 11028 11029 11030 11031 11031 11032 11032 11032 11032 11031 11030 11030 11029 11029 11028 11027 11027 11027 11027 11026 11025 11024 11023 11021 11020 11019 11018 11016 11015 11014 11013 11013 11012 11011 11010 11009 11008 11006 11005 11003 11001 11001 11000 10998 10997 10995 10994 10992
10885 10893 10899 10905 10911 10919 10926 10932 10937 10943 10949 10954 10960 10964 10968 10974 10978 10983 10988 10992 10993 10995 10999 11001 11001 11003 11005 11007 11009 11011 11013 11015 11017 11019 11021 11023 11025 11026 11027 11028 11029 11030 11031 11032 11032 11032 11032 11032 11031 11031 11031 11030 11030 11029 11029 11028 11028 11028 11027 11026 11025 11023 11022 11021 11020 11019 11018 11017 11016 11015 11014 11013 11012 11011 11010 11008 11007 11005 11004 11003 11002 11000 10999 10997 10996 10995
10877 10884 10890 10897 10905 10913 10920 10925 10932 10938 10944 10950 10956 10961 10965 10970 10974 10979 10984 10988 10989 10991 10995 10998 10998 11000 11003 11005 11007 11009 11010 11013 11015 11017 11019 11021 11023 11025 11026 11027 11028 11030 11031 11032 11032 11033 11033 11033 11032 11032 11032 11031 11031 11030 11030 11030 11029 11029 11028 11028 11027 11025 11024 11023 11022 11021 11020 11019 11018 11017 11017 11016 11015 11013 11012 11010 11009 11008 11007 11006 11004 11003 11002 11000 10998 10997
10870 10877 10883 10890 10899 10906 10913 10919 10927 10933 10940 10945 10951 10957 10963 10967 10971 10976 10980 10983 10985 10989 10993 10994 10995 10998 11000 11002 11005 11007 11008 11010 11014 11015 11016 11019 11021 11023 11025 11026 11028 11029 11031 11032 11032 11033 11033 11033 11033 11033 11032 11032 11032 11032 11031 11031 11031 11030 11030 11029 11029 11028 11026 11025 11024 11023 11022 11021 11020 11019 11019 11018 11017 11016 11014 11013 11012 11011 11009 11008 11007 11005 11004 11002 11001 11000
10864 10869 10875 10883 10892 10900 10907 10915 10921 10927 10933 10938 10944 10952 10958 10962 10968 10973 10976 10978 10980 10985 10989 10989 10991 10995 10997 11000 11002 11004 11006 11008 11012 11013 11015 11017 11019 11021 11023 11025 11027 11029 11030 11032 11032 11033 11033 11034 11034 11034 11033 11033 11033 11033 11033 11032 11032 11032 11031 11031 11030 11030 11028 11027 11026 11025 11024 11023 11023 11022 11021 11020 11019 11017 11016 11015 11014 11013 11012 11010 11009 11007 11006 11005 11004 11003
10858 10864 10872 10879 10886 10895 10901 10907 10912 10919 10925 10932 10941 10949 10952 10957 10963 10968 10971 10972 10976 10981 10984 10986 10989 10992 10994 10997 10999 11002 11004 11006 11009 11012 11014 11016 11017 11020 11022 11024 11026 11028 11030 11031 11032 11033 11033 11034 11034 11034 11034 11034 11034 11034 11034 11034 11034 11033 11033 11032 11032 11031 11031 11030 11029 11028 11027 11026 11025 11024 11023 11022 11021 11020 11019 11018 11017 11015 11014 11013 11011 11010 11008 11007 11006 11005
10850 10856 10864 10870 10882 10892 10896 10901 10907 10913 10919 10927 10937 10944 10947 10951 10957 10961 10964 10967 10971 10976 10979 10983 10987 10989 10991 10994 10997 10999 11001 11004 11007 11010 11012 11014 11016 11018 11020 11022 11024 11026 11028 11030 11032 11033 11033 11034 11035 11035 11035 11035 11035 11035 11035 11035 11035 11035 11034 11034 11033 11033 11032 11032 11031 11030 11029 11028 11026 11025 11025 11023 11023 11022 11021 11020 11019 11018 11016 11015 11014 11013 11011 11010 11010 11009
10839 10847 10855 10866 10880 10888 10892 10898 10902 10908 10915 10923 10932 10940 10943 10945 10950 10955 10958 10961 10967 10972 10975 10979 10982 10985 10988 10991 10994 10996 10999 11001 11004 11007 11010 11012 11014 11017 11019 11021 11022 11025 11027 11029 11031 11032 11033 11033 11034 11035 11036 11036 11036 11036 11036 11036 11036 11036 11036 11035 11035 11034 11034 11033 11033 11032 11031 11030 11028 11027 11026 11026 11025 11024 11023 11022 11021 11020 11019 11018 11017 11016 11014 11014 11013 11012
10830 10843 10854 10867 10878 10881 10884 10890 10895 10903 10912 10919 10928 10935 10939 10942 10947 10951 10954 10958 10963 10967 10971 10974 10977 10980 10984 10987 10990 10993 10996 10999 11001 11004 11007 11010 11013 11016 11018 11019 11021 11023 11025 11027 11030 11031 11032 11033 11034 11035 11036 11036 11037 11037 11037 11037 11037 11037 11037 11036 11036 11035 11035 11035 11035 11034 11033 11032 11031 11030 11028 11028 11027 11026 11025 11024 11023 11022 11021 11020 11019 11019 11018 11017 11016 11015
10829 10842 10850 10860 10865 10866 10872 10880 10890 10901 10909 10917 10923 10927 10933 10937 10942 10946 10951 10957 10960 10963 10968 10971 10974 10977 10980 10984 10987 10991 10994 10996 10998 11001 11004 11008 11011 11014 11016 11017 11019 11021 11024 11026 11028 11030 11032 11033 11034 11035 11036 11037 11037 11037 11038 11038 11038 11038 11038 11038 11037 11037 11037 11036 11036 11036 11035 11034 11033 11032 11031 11030 11029 11029 11028 11027 11026 11025 11024 11023 11022 11021 11021 11020 11019 11018
10833 10841 10848 10854 10855 10858 10867 10876 10886 10896 10905 10913 10917 10920 10927 10933 10938 10945 10951 10956 10958 10962 10965 10967 10971 10974 10978 10981 10984 10987 10991 10993 10996 10998 11001 11004 11008 11011 11013 11015 11017 11020 11022 11024 11027 11029 11031 11033 11034 11035 11035 11036 11037 11038 11038 11038 11039 11039 11039 11039 11038 11038 11038 11038 11038 11037 11036 11036 11035 11034 11033 11032 11031 11031 11030 11029 11028 11027 11027 11025 11024 11024 11023 11023 11022 11022
10826 10834 10843 10850 10853 10858 10866 10873 10882 10891 10900 10907 10910 10915 10922 10928 10936 10943 10947 10952 10956 10959 10961 10964 10968 10971 10974 10977 10981 10984 10988 10991 10993 10996 10998 11001 11005 11008 11011 11013 11016 11018 11021 11023 11025 11028 11030 11032 11033 11034 11035 11036 11037 11038 11039 11039 11039 11039 11040 11040 11039 11039 11039 11039 11039 11039 11038 11037 11037 11036 11035 11034 11033 11033 11032 11032 11030 11030 11029 11028 11027 11026 11026 11025 11025 11024
10817 10828 10836 10842 10846 10851 10860 10870 10880 10890 10897 10901 10904 10911 10917 10923 10931 10936 10941 10946 10949 10952 10956 10960 10964 10967 10970 10973 10977 10981 10984 10987 10990 10993 10996 10998 11002 11005 11008 11011 11014 11017 11019 11021 11024 11026 11028 11031 11032 11033 11034 11035 11036 11037 11039 11039 11039 11039 11040 11040 11040 11040 11040 11040 11040 11040 11040 11039 11038 11038 11037 11037 11036 11035 11035 11034 11033 11032 11031 11030 11028 11028 11028 11028 11027 11027
10812 10821 10824 10827 10831 10840 10853 10864 10873 10882 10890 10894 10898 10904 10910 10917 10924 10929 10935 10941 10943 10947 10952 10955 10959 10962 10966 10970 10974 10978 10981 10984 10987 10990 10993 10995 10998 11002 11005 11008 11011 11015 11018 11020 11022 11024 11027 11029 11030 11032 11033 11035 11036 11037 11038 11039 11040 11040 11040 11040 11040 11040 11040 11041 11041 11041 11041 11040 11040 11039 11039 11039 11038 11037 11037 11036 11035 11034 11033 11032 11030 11030 11030 11030 11030 11029
10806 10809 10811 10815 10821 10833 10845 10853 10862 10872 10879 10884 10889 10896 10904 10911 10917 10923 10930 10934 10937 10942 10946 10949 10954 10958 10962 10966 10969 10973 10977 10980 10984 10987 10989 10992 10995 10998 11002 11005 11009 11012 11015 11018 11020 11022 11025 11027 11028 11030 11032 11033 11035 11036 11037 11038 11039 11040 11040 11040 11040 11040 11041 11041 11042 11042 11042 11042 11041 11041 11041 11040 11040 11039 11039 11038 11037 11036 11035 11034 11033 11032 11032 11032 11032 11031
10798 10800 10802 10807 10817 10828 10837 10845 10855 10863 10868 10873 10881 10890 10898 10904 10910 10917 10924 10927 10931 10937 10941 10945 10949 10953 10958 10961 10964 10968 10972 10976 10980 10983 10986 10989 10992 10996 10999 11002 11006 11010 11013 11015 11018 11020 11022 11025 11027 11028 11030 11032 11033 11035 11036 11037 11038 11039 11040 11040 11040 11040 11041 11041 11042 11042 11042 11042 11042 11042 11042 11042 11041 11041 11040 11040 11038 11037 11036 11035 11035 11034 11034 11034 11034 11034
10793 10795 10795 10800 10810 10821 10830 10839 10849 10855 10860 10868 10876 10883 10889 10897 10905 10913 10918 10921 10927 10934 10937 10939 10944 10950 10954 10957 10960 10965 10968 10971 10975 10979 10982 10986 10990 10993 10996 10998 11002 11007 11011 11013 11016 11018 11020 11023 11024 11026 11028 11030 11032 11033 11034 11035 11037 11038 11039 11039 11040 11040 11041 11041 11042 11042 11042 11043 11043 11043 11043 11042 11042 11041 11041 11041 11040 11039 11038 11037 11037 11037 11036 11036 11036 11036
10786 10787 10791 10802 10811 10818 10828 10837 10843 10850 10858 10866 10873 10878 10885 10893 10901 10907 10911 10916 10922 10927 10930 10933 10939 10945 10949 10952 10956 10961 10964 10966 10971 10976 10980 10983 10987 10990 10993 10995 10999 11004 11009 11011 11012 11014 11017 11020 11021 11023 11025 11027 11029 11031 11032 11033 11035 11036 11037 11038 11039 11040 11041 11041 11041 11042 11042 11043 11043 11043 11043 11043 11042 11042 11041 11041 11040 11040 11039 11038 11038 11038 11038 11038 11038 11038
10780 10780 10790 10804 10812 10819 10828 10833 10841 10850 10857 10864 10871 10878 10885 10892 10897 10900 10904 10910 10916 10921 10925 10931 10936 10939 10941 10946 10951 10955 10957 10961 10968 10974 10977 10980 10984 10987 10990 10993 10996 11001 11004 11006 11008 11010 11014 11017 11018 11020 11022 11024 11026 11028 11030 11031 11033 11034 11035 11036 11038 11039 11040 11040 11041 11041 11042 11042 11043 11043 11043 11043 11042 11042 11041 11041 11041 11041 11040 11040 11039 11039 11040 11040 11039 11039
10778 10781 10791 10800 10807 10818 10827 10831 10838 10846 10852 10858 10865 10872 10880 10887 10892 10896 10900 10905 10911 10916 10921 10926 10930 10932 10935 10941 10946 10948 10952 10959 10966 10971 10973 10977 10981 10984 10987 10990 10993 10997 11000 11003 11005 11008 11012 11014 11015 11017 11019 11020 11023 11025 11027 11029 11030 11032 11033 11034 11036 11037 11038 11039 11040 11040 11041 11041 11042 11042 11043 11043 11043 11042 11042 11041 11041 11041 11041 11041 11041 11040 11041 11041 11041 11041
10770 10777 10787 10794 10802 10812 10819 10825 10833 10841 10845 10850 10857 10864 10870 10877 10883 10888 10894 10900 10905 10910 10914 10917 10920 10923 10930 10938 10941 10944 10952 10960 10964 10965 10968 10973 10978 10981 10985 10988 10990 10994 10999 11004 11006 11008 11010 11011 11011 11013 11016 11017 11019 11022 11024 11026 11028 11030 11031 11032 11034 11035 11036 11037 11038 11039 11039 11040 11041 11041 11042 11042 11043 11043 11043 11042 11042 11042 11042 11041 11041 11042 11042 11042 11042 11042
10764 10774 10783 10793 10802 10807 10810 10816 10825 10834 10838 10843 10851 10858 10863 10868 10874 10881 10888 10893 10898 10902 10905 10907 10910 10916 10925 10932 10936 10943 10951 10956 10956 10959 10964 10970 10975 10979 10983 10985 10987 10993 11001 11005 11004 11003 11004 11004 11005 11009 11012 11013 11015 11017 11021 11023 11024 11027 11028 11030 11031 11032 11033 11034 11035 11037 11038 11039 11039 11040 11041 11042 11042 11043 11043 11043 11043 11042 11042 11042 11042 11042 11042 11042 11042 11042
10765 10772 10778 10789 10797 10801 10807 10814 10820 10826 10831 10836 10845 10852 10857 10862 10870 10877 10882 10884 10889 10893 10895 10899 10906 10913 10920 10927 10934 10941 10947 10949 10952 10957 10962 10968 10972 10977 10980 10981 10984 10991 10997 10997 10994 10993 10996 11000 11002 11004 11007 11009 11010 11012 11016 11019 11020 11021 11024 11026 11028 11029 11030 11031 11032 11034 11036 11037 11038 11039 11040 11041 11041 11042 11043 11043 11043 11042 11042 11042 11042 11042 11042 11042 11042 11042
10759 10763 10773 10784 10789 10794 10803 10810 10816 10823 10829 10834 10842 10847 10852 10859 10866 10872 10875 10878 10882 10886 10889 10896 10904 10909 10915 10922 10932 10940 10945 10952 10956 10956 10958 10965 10970 10974 10977 10978 10980 10986 10989 10987 10986 10987 10991 10996 10999 11000 11002 11004 11005 11007 11011 11014 11014 11015 11018 11022 11024 11026 11027 11029 11030 11032 11034 11035 11036 11037 11038 11039 11040 11041 11042 11042 11042 11042 11042 11042 11042 11042 11042 11041 11041 11041
10749 10758 10769 10777 10783 10789 10795 10799 10805 10814 10822 10827 10833 10838 10844 10851 10857 10862 10866 10870 10875 10880 10886 10892 10897 10904 10911 10919 10929 10937 10944 10952 10955 10952 10953 10960 10967 10970 10974 10977 10978 10981 10981 10979 10980 10982 10986 10991 10995 10997 10999 11000 11001 11004 11007 11010 11011 11013 11015 11018 11020 11022 11024 11026 11028 11029 11031 11032 11034 11035 11036 11037 11038 11039 11040 11040 11041 11041 11041 11041 11041 11041 11041 11041 11041 11041
10742 10756 10764 10770 10777 10784 10789 10793 10798 10805 10811 10817 10824 10832 10839 10846 10851 10855 10859 10863 10869 10876 10882 10886 10892 10901 10909 10918 10928 10933 10937 10942 10944 10945 10948 10953 10961 10967 10971 10975 10976 10976 10975 10974 10975 10977 10980 10986 10990 10992 10994 10996 10997 11000 11003 11005 11008 11011 11013 11015 11017 11019 11021 11023 11025 11026 11027 11029 11031 11032 11033 11034 11036 11036 11037 11038 11038 11039 11039 11039 11039 11039 11040 11040 11040 11040
10737 10749 10757 10765 10772 10776 10781 10787 10793 10800 10807 10814 10822 10828 10833 10838 10843 10849 10854 10859 10866 10872 10874 10878 10888 10899 10907 10915 10924 10928 10931 10933 10934 10937 10943 10948 10955 10963 10969 10972 10973 10973 10972 10970 10969 10970 10973 10979 10983 10986 10988 10990 10991 10995 10998 11001 11004 11008 11010 11011 11014 11016 11018 11020 11022 11023 11025 11026 11027 11029 11030 11032 11033 11033 11034 11034 11035 11036 11037 11037 11038 11038 11038 11038 11038 11038
10730 10741 10749 10756 10762 10767 10773 10779 10786 10795 10803 10811 10817 10822 10827 10833 10837 10842 10845 10850 10857 10859 10859 10867 10882 10895 10904 10911 10916 10917 10917 10919 10924 10930 10939 10946 10952 10959 10966 10969 10969 10970 10969 10966 10965 10965 10968 10973 10977 10979 10981 10982 10985 10989 10993 10996 11000 11004 11005 11006 11008 11011 11013 11016 11018 11019 11021 11022 11024 11025 11027 11028 11029 11030 11030 11031 11031 11033 11034 11034 11035 11035 11036 11036 11036 11036
10725 10733 10740 10747 10755 10764 10770 10775 10782 10790 10796 10804 10810 10813 10818 10822 10824 10827 10832 10839 10845 10845 10849 10864 10881 10893 10901 10904 10908 10908 10905 10910 10919 10928 10937 10945 10950 10957 10962 10965 10967 10966 10964 10962 10961 10962 10964 10967 10970 10973 10974 10976 10981 10984 10988 10991 10996 10999 11000 11000 11003 11006 11008 11011 11013 11015 11017 11018 11020 11022 11023 11023 11024 11025 11026 11027 11028 11029 11030 11031 11032 11032 11033 11034 11034 11033
10716 10723 10731 10740 10750 10759 10764 10769 10777 10783 10788 10794 10797 10800 10805 10809 10811 10816 10824 10832 10837 10840 10852 10871 10882 10889 10894 10894 10896 10900 10902 10908 10917 10926 10936 10942 10948 10956 10960 10961 10963 10964 10961 10961 10959 10958 10959 10961 10964 10967 10970 10973 10977 10979 10983 10986 10990 10993 10995 10996 10998 11001 11004 11006 11008 11010 11012 11014 11016 11017 11018 11018 11019 11021 11022 11024 11025 11025 11027 11028 11029 11030 11030 11031 11031 11030
10707 10716 10725 10733 10742 10750 10755 10760 10766 10771 10777 10783 10788 10794 10802 10808 10813 10820 10828 10837 10840 10845 10859 10873 10878 10883 10887 10885 10887 10893 10899 10904 10912 10922 10932 10939 10945 10949 10948 10948 10954 10955 10954 10953 10950 10949 10952 10955 10959 10962 10965 10967 10970 10973 10977 10980 10983 10987 10989 10991 10992 10996 10999 11001 11003 11005 11008 11011 11013 11013 11013 11013 11014 11017 11019 11020 11021 11022 11023 11024 11025 11026 11027 11027 11027 11027
10700 10709 10717 10726 10736 10743 10748 10752 10757 10764 10771 10777 10786 10796 10802 10807 10813 10820 10831 10841 10844 10848 10859 10867 10870 10875 10879 10879 10882 10888 10895 10901 10907 10916 10924 10931 10936 10936 10935 10941 10944 10939 10937 10937 10935 10938 10944 10948 10953 10957 10959 10961 10964 10966 10969 10973 10976 10979 10982 10985 10986 10989 10992 10994 10996 10999 11002 11005 11007 11007 11008 11009 11011 11013 11014 11015 11017 11018 11019 11020 11021 11022 11023 11023 11022 11022
10694 10703 10711 10720 10729 10734 10740 10746 10752 10760 10767 10774 10785 10794 10797 10802 10810 10817 10826 10834 10837 10842 10853 10862 10866 10870 10873 10876 10879 10885 10892 10897 10900 10906 10914 10922 10928 10929 10932 10936 10929 10918 10919 10925 10928 10933 10940 10944 10947 10951 10953 10956 10958 10960 10962 10965 10968 10972 10975 10978 10980 10982 10985 10988 10990 10993 10995 10997 10999 11000 11002 11004 11006 11008 11009 11009 11011 11013 11014 11016 11017 11018 11018 11018 11017 11017
10688 10697 10705 10713 10720 10726 10733 10740 10747 10756 10764 10772 10782 10788 10790 10796 10804 10812 10820 10827 10831 10837 10848 10856 10860 10863 10868 10874 10880 10886 10890 10890 10890 10897 10907 10916 10922 10923 10922 10919 10911 10906 10912 10920 10926 10931 10936 10939 10942 10945 10948 10951 10953 10954 10956 10958 10961 10964 10968 10971 10973 10975 10978 10981 10984 10986 10988 10989 10991 10992 10995 10999 11001 11001 11002 11003 11005 11007 11008 11010 11012 11013 11013 11013 11013 11014
10684 10692 10699 10705 10713 10720 10727 10735 10743 10752 10759 10767 10774 10779 10783 10789 10797 10805 10812 10817 10823 10832 10841 10850 10856 10857 10861 10869 10877 10880 10878 10876 10880 10890 10900 10906 10911 10911 10907 10905 10904 10903 10907 10917 10924 10928 10930 10933 10936 10938 10941 10944 10946 10948 10950 10952 10954 10956 10960 10963 10966 10969 10972 10975 10978 10979 10980 10982 10984 10985 10988 10992 10995 10995 10996 10999 11000 11001 11003 11005 11006 11007 11007 11008 11009 11009
10680 10687 10692 10699 10707 10714 10722 10731 10738 10744 10752 10760 10766 10770 10776 10784 10791 10797 10802 10807 10814 10824 10833 10841 10849 10853 10857 10863 10868 10867 10864 10866 10873 10881 10888 10894 10898 10899 10897 10897 10898 10900 10904 10912 10919 10920 10922 10925 10927 10929 10931 10934 10936 10938 10941 10944 10946 10949 10951 10955 10958 10962 10966 10969 10971 10972 10973 10974 10977 10979 10981 10985 10988 10989 10991 10994 10996 10997 10998 10999 11000 11001 11002 11002 11003 11004
10675 10681 10686 10693 10701 10707 10716 10723 10728 10735 10745 10754 10759 10763 10770 10777 10782 10787 10793 10799 10807 10816 10823 10829 10837 10844 10849 10854 10854 10853 10855 10861 10866 10871 10877 10883 10886 10888 10888 10887 10890 10894 10898 10903 10907 10909 10912 10916 10918 10919 10921 10922 10924 10927 10931 10934 10938 10941 10944 10947 10950 10954 10959 10961 10963 10965 10966 10967 10969 10972 10975 10977 10980 10983 10986 10989 10991 10992 10992 10993 10994 10995 10995 10995 10996 10998
10669 10674 10680 10688 10695 10701 10709 10715 10721 10729 10737 10743 10748 10754 10761 10768 10773 10779 10785 10793 10800 10807 10813 10820 10826 10831 10835 10839 10841 10844 10848 10853 10856 10858 10864 10870 10874 10877 10878 10878 10882 10885 10886 10890 10895 10898 10901 10905 10908 10911 10913 10914 10916 10919 10922 10926 10930 10934 10937 10940 10943 10947 10951 10953 10955 10957 10958 10960 10963 10966 10968 10969 10972 10975 10979 10982 10985 10986 10986 10986 10987 10988 10988 10988 10990 10992
10664 10670 10677 10685 10690 10695 10701 10708 10715 10723 10727 10731 10738 10745 10752 10758 10763 10769 10777 10786 10793 10799 10805 10811 10815 10818 10821 10824 10826 10830 10833 10837 10840 10843 10848 10855 10860 10864 10867 10869 10872 10873 10875 10878 10883 10887 10892 10895 10898 10901 10903 10904 10906 10909 10914 10919 10922 10926 10929 10932 10936 10939 10942 10945 10946 10948 10951 10954 10956 10959 10960 10962 10964 10968 10972 10975 10978 10979 10978 10978 10980 10981 10981 10983 10985 10988
10661 10667 10673 10678 10683 10688 10695 10701 10707 10714 10717 10722 10730 10737 10742 10748 10752 10760 10769 10778 10784 10790 10796 10800 10802 10806 10810 10812 10814 10815 10815 10816 10821 10826 10833 10841 10846 10850 10855 10858 10860 10862 10865 10868 10872 10879 10884 10886 10888 10891 10892 10893 10895 10899 10904 10909 10914 10917 10921 10925 10928 10931 10934 10936 10938 10940 10943 10946 10948 10951 10952 10955 10958 10960 10963 10966 10969 10970 10970 10971 10972 10974 10975 10978 10981 10983
10657 10662 10667 10673 10678 10684 10690 10696 10702 10706 10708 10714 10722 10728 10734 10739 10744 10752 10761 10768 10774 10781 10787 10789 10790 10794 10799 10802 10805 10806 10805 10805 10809 10814 10820 10827 10833 10838 10844 10848 10850 10853 10856 10859 10863 10871 10876 10877 10879 10881 10881 10882 10887 10891 10894 10900 10906 10910 10913 10917 10920 10923 10926 10929 10931 10932 10935 10938 10940 10943 10945 10947 10950 10951 10954 10959 10961 10960 10960 10962 10965 10967 10969 10971 10974 10977
10652 10657 10663 10669 10675 10678 10683 10689 10694 10697 10700 10706 10714 10720 10726 10731 10737 10745 10752 10758 10765 10772 10777 10779 10782 10785 10789 10792 10795 10797 10798 10799 10802 10806 10812 10817 10822 10826 10832 10836 10840 10843 10846 10849 10854 10860 10865 10867 10869 10870 10871 10874 10879 10883 10887 10892 10897 10901 10905 10909 10912 10916 10919 10921 10924 10926 10928 10930 10933 10935 10938 10940 10941 10943 10946 10950 10949 10948 10950 10953 10956 10958 10961 10964 10967 10970
10649 10654 10659 10664 10669 10673 10678 10682 10686 10689 10694 10700 10706 10712 10718 10724 10730 10737 10744 10750 10756 10761 10766 10770 10773 10777 10780 10784 10787 10789 10791 10793 10795 10799 10804 10808 10812 10816 10821 10824 10828 10832 10836 10839 10843 10848 10852 10855 10857 10859 10862 10864 10869 10873 10879 10884 10888 10892 10896 10900 10904 10907 10910 10913 10916 10918 10921 10923 10925 10927 10930 10932 10933 10934 10938 10939 10938 10939 10943 10946 10947 10949 10952 10955 10959 10962
10645 10649 10653 10656 10660 10665 10669 10673 10677 10682 10688 10693 10698 10704 10710 10716 10723 10728 10734 10739 10746 10752 10757 10762 10765 10769 10773 10776 10779 10782 10784 10785 10788 10792 10796 10799 10803 10807 10810 10813 10817 10822 10826 10828 10832 10836 10840 10843 10847 10849 10852 10854 10858 10862 10867 10873 10878 10882 10886 10890 10894 10898 10901 10904 10908 10911 10914 10916 10918 10919 10920 10922 10925 10926 10928 10930 10930 10932 10936 10939 10940 10941 10942 10945 10950 10954
10641 10645 10649 10652 10656 10659 10662 10667 10672 10677 10682 10687 10692 10697 10702 10708 10714 10719 10724 10729 10736 10743 10748 10753 10757 10762 10765 10768 10770 10773 10775 10778 10781 10784 10787 10790 10793 10796 10799 10803 10807 10812 10815 10818 10822 10825 10829 10833 10836 10839 10841 10844 10847 10850 10855 10862 10867 10872 10876 10880 10884 10887 10890 10893 10896 10901 10905 10908 10910 10911 10912 10913 10916 10918 10920 10921 10922 10923 10926 10930 10932 10933 10933 10935 10940 10945
10639 10643 10646 10649 10653 10656 10660 10664 10668 10673 10677 10681 10686 10691 10696 10701 10707 10712 10716 10721 10727 10733 10738 10743 10748 10752 10755 10758 10761 10764 10766 10769 10772 10774 10777 10780 10782 10785 10787 10791 10797 10803 10805 10807 10811 10816 10819 10822 10825 10828 10830 10833 10836 10840 10845 10850 10855 10860 10865 10869 10873 10876 10879 10882 10884 10888 10893 10897 10900 10903 10904 10905 10907 10909 10910 10912 10914 10916 10918 10920 10922 10924 10925 10926 10929 10934
10637 10641 10643 10646 10650 10654 10658 10661 10665 10669 10673 10677 10680 10684 10689 10694 10700 10705 10709 10714 10719 10724 10728 10733 10738 10742 10745 10747 10750 10753 10757 10759 10760 10763 10766 10769 10771 10774 10776 10780 10786 10792 10794 10795 10800 10805 10808 10810 10813 10816 10819 10822 10825 10829 10833 10838 10843 10848 10853 10857 10860 10864 10867 10871 10874 10876 10879 10883 10888 10892 10894 10895 10897 10899 10901 10903 10905 10906 10909 10911 10912 10914 10916 10917 10918 10922
10636 10639 10642 10645 10648 10651 10654 10657 10661 10665 10668 10672 10675 10679 10682 10687 10692 10697 10702 10706 10710 10714 10719 10723 10727 10731 10734 10736 10738 10742 10747 10749 10749 10751 10754 10758 10761 10764 10766 10769 10774 10780 10782 10784 10787 10792 10795 10798 10801 10804 10807 10810 10813 10817 10822 10826 10831 10835 10839 10843 10847 10850 10853 10857 10861 10865 10867 10870 10874 10879 10883 10885 10887 10889 10891 10893 10894 10896 10898 10901 10902 10905 10907 10908 10909 10911
10635 10637 10640 10643 10647 10649 10651 10653 10656 10660 10664 10666 10669 10673 10677 10681 10685 10689 10694 10698 10701 10705 10709 10712 10716 10720 10723 10726 10729 10732 10735 10738 10739 10739 10743 10747 10750 10753 10755 10758 10763 10767 10770 10772 10775 10778 10781 10784 10788 10792 10796 10799 10802 10805 10809 10813 10818 10822 10825 10829 10833 10836 10840 10843 10848 10852 10855 10857 10860 10865 10870 10873 10875 10878 10880 10881 10883 10885 10887 10890 10891 10894 10897 10899 10899 10901
10633 10635 10637 10641 10644 10646 10647 10649 10652 10656 10659 10660 10663 10667 10670 10674 10677 10681 10685 10689 10692 10696 10699 10703 10706 10709 10713 10716 10719 10722 10724 10727 10728 10730 10732 10735 10737 10741 10744 10747 10750 10754 10756 10758 10761 10764 10767 10771 10775 10780 10784 10787 10790 10793 10796 10800 10804 10807 10811 10815 10819 10823 10827 10831 10835 10838 10842 10845 10847 10850 10855 10859 10862 10866 10869 10870 10872 10874 10876 10878 10880 10883 10886 10887 10889 10891